Location: Unspecified
(0.0000°N, 0.0000°E)
Time: 16:03:00
(UTC+00:00)

Transit 2A - All Passes

Search period start: 19 April 2024 00:00
Search period end: 29 April 2024 00:00
Orbit: 596 x 956 km, 66.7° (Epoch: 18 April)

Date Brightness Start Highest point End Pass type
(mag) Time Alt. Az. Time Alt. Az. Time Alt. Az.
19 Apr - 05:12:15 10° SSW 05:16:38 72° WNW 05:20:54 10° NNE visible
19 Apr - 16:02:19 10° NNE 16:07:15 25° ENE 16:12:17 10° SE daylight
19 Apr - 17:44:49 10° NW 17:50:10 30° WSW 17:55:37 10° S daylight
20 Apr - 04:37:15 10° S 04:41:35 56° ESE 04:45:47 10° NNE visible
20 Apr - 15:28:45 10° NE 15:32:09 15° ENE 15:35:36 10° ESE daylight
20 Apr - 17:09:07 10° NW 17:15:04 49° WSW 17:21:09 10° S daylight
21 Apr - 04:02:39 10° S 04:06:30 29° ESE 04:10:13 10° NE visible
21 Apr - 05:49:08 10° WNW 05:49:14 10° WNW 05:49:20 10° WNW daylight
21 Apr - 16:33:47 10° NNW 16:39:58 79° WSW 16:46:19 10° SSE daylight
22 Apr - 03:28:44 10° SSE 03:31:23 16° ESE 03:33:58 10° ENE visible
22 Apr - 05:11:01 10° WSW 05:14:10 19° WNW 05:17:17 10° NNW visible
22 Apr - 15:58:46 10° N 16:04:53 65° ENE 16:11:09 10° SSE daylight
22 Apr - 17:46:19 10° W 17:47:56 11° WSW 17:49:32 10° SW daylight
23 Apr - 04:35:04 10° SW 04:39:06 37° WNW 04:43:03 10° N visible
23 Apr - 15:24:04 10° N 15:29:48 40° ENE 15:35:40 10° SE daylight
23 Apr - 17:08:30 10° WNW 17:12:46 19° WSW 17:17:04 10° SSW daylight
24 Apr - 03:59:39 10° SSW 04:04:02 74° WNW 04:08:18 10° NNE visible
24 Apr - 14:49:48 10° NNE 14:54:43 25° ENE 14:59:43 10° ESE daylight
24 Apr - 16:32:15 10° NW 16:37:39 31° WSW 16:43:07 10° S daylight
25 Apr - 03:24:39 10° S 03:28:57 55° ESE 03:33:09 10° NNE visible
25 Apr - 14:16:15 10° NE 14:19:37 15° ENE 14:23:00 10° ESE daylight
25 Apr - 15:56:33 10° NW 16:02:32 50° WSW 16:08:37 10° S daylight
26 Apr - 02:50:05 10° S 02:53:52 28° ESE 02:57:34 10° NE visible
26 Apr - 04:35:56 10° W 04:36:37 10° WNW 04:37:18 10° WNW visible
26 Apr - 15:21:12 10° NNW 15:27:26 81° WSW 15:33:46 10° SSE daylight
27 Apr - 02:16:13 10° SSE 02:18:45 15° ESE 02:21:15 10° ENE night (unlit)
27 Apr - 03:58:21 10° WSW 04:01:32 20° WNW 04:04:42 10° NNW visible
27 Apr - 14:46:11 10° N 14:52:21 64° ENE 14:58:36 10° SSE daylight
27 Apr - 16:33:33 10° W 16:35:22 11° WSW 16:37:10 10° SW daylight
28 Apr - 03:22:25 10° SW 03:26:27 38° WNW 03:30:26 10° N visible
28 Apr - 14:11:31 10° N 14:17:15 39° ENE 14:23:04 10° SE daylight
28 Apr - 15:55:52 10° WNW 16:00:13 19° WSW 16:04:34 10° SSW daylight
